| time (UTC) | temp C | wind direction | speed KPH | gust KPH | rain 1hr cm | rain 24hr cm | rain mn cm | humidity % | barometer mb |
| 20260508131505 | 8 | 56 | 0.0 | 8.0 | 0.00 | 0.00 | 0.00 | 85 | 1016.0 |
| 20260508130002 | 8 | 77 | 0.0 | 8.0 | 0.00 | 0.00 | 0.00 | 84 | 1016.0 |
| 20260508124501 | 8 | 15 | 0.0 | 9.7 | 0.00 | 0.00 | 0.00 | 85 | 1016.1 |
| 20260508123001 | 8 | 10 | 0.0 | 16.1 | 0.00 | 0.00 | 0.00 | 84 | 1016.2 |
| 20260508121501 | 8 | 48 | 0.0 | 8.0 | 0.00 | 0.00 | 0.00 | 82 | 1016.3 |
| 20260508114559 | 8 | 44 | 1.6 | 14.5 | 0.00 | 0.00 | 0.00 | 80 | 1016.3 |
| 20260508113105 | 8 | 32 | 0.0 | 19.3 | 0.00 | 0.00 | 0.00 | 79 | 1016.3 |
| 20260508111609 | 9 | 341 | 1.6 | 16.1 | 0.00 | 0.00 | 0.00 | 80 | 1016.2 |
| 20260508110057 | 8 | 32 | 0.0 | 8.0 | 0.00 | 0.00 | 0.00 | 80 | 1016.0 |
| 20260508104600 | 8 | 77 | 3.2 | 19.3 | 0.00 | 0.00 | 0.00 | 78 | 1015.9 |
| 20260508103055 | 9 | 35 | 4.8 | 14.5 | 0.00 | 0.00 | 0.00 | 77 | 1015.8 |
| 20260508101550 | 8 | 89 | 0.0 | 8.0 | 0.00 | 0.00 | 0.00 | 79 | 1015.8 |
| 20260508100048 | 8 | 50 | 3.2 | 14.5 | 0.00 | 0.00 | 0.00 | 79 | 1015.8 |
| 20260508094548 | 8 | 52 | 1.6 | 14.5 | 0.00 | 0.00 | 0.00 | 80 | 1015.8 |
| 20260508093053 | 8 | 25 | 9.7 | 22.5 | 0.00 | 0.00 | 0.00 | 80 | 1015.8 |
| 20260508091556 | 8 | 71 | 1.6 | 14.5 | 0.00 | 0.00 | 0.00 | 80 | 1015.7 |
| 20260508090054 | 8 | 74 | 0.0 | 8.0 | 0.00 | 0.00 | 0.00 | 81 | 1015.7 |
| 20260508084539 | 7 | 15 | 0.0 | 12.9 | 0.00 | 0.00 | 0.00 | 83 | 1015.6 |
| 20260508083038 | 7 | 48 | 0.0 | 14.5 | 0.00 | 0.00 | 0.00 | 83 | 1015.5 |
| 20260508081541 | 7 | 63 | 0.0 | 6.4 | 0.00 | 0.00 | 0.00 | 84 | 1015.4 |
| 20260508080041 | 7 | 20 | 0.0 | 9.7 | 0.00 | 0.00 | 0.00 | 85 | 1015.5 |
| 20260508074533 | 7 | 25 | 0.0 | 4.8 | 0.00 | 0.00 | 0.00 | 85 | 1015.4 |
| 20260508073040 | 7 | 15 | 0.0 | 1.6 | 0.00 | 0.00 | 0.00 | 85 | 1015.2 |
| 20260508071535 | 7 | 25 | 0.0 | 11.3 | 0.00 | 0.00 | 0.00 | 85 | 1015.1 |
| 20260508070041 | 7 | 40 | 0.0 | 4.8 | 0.00 | 0.00 | 0.00 | 86 | 1015.0 |
| 20260508064534 | 7 | 8 | 0.0 | 4.8 | 0.00 | 0.00 | 0.00 | 86 | 1014.9 |
| 20260508063029 | 7 | 15 | 0.0 | 12.9 | 0.00 | 0.00 | 0.00 | 87 | 1014.8 |
| 20260508061526 | 7 | 357 | 0.0 | 12.9 | 0.00 | 0.00 | 0.00 | 88 | 1014.8 |
| 20260508060028 | 6 | 25 | 0.0 | 1.6 | 0.00 | 0.00 | 0.00 | 89 | 1014.8 |
| 20260508054528 | 6 | 30 | 0.0 | 17.7 | 0.00 | 0.00 | 0.00 | 89 | 1014.7 |
| 20260508053019 | 6 | 61 | 0.0 | 9.7 | 0.00 | 0.00 | 0.00 | 89 | 1014.7 |
| 20260508051516 | 6 | 50 | 0.0 | 6.4 | 0.00 | 0.00 | 0.00 | 90 | 1014.7 |
| 20260508050016 | 6 | 10 | 0.0 | 3.2 | 0.00 | 0.00 | 0.00 | 91 | 1014.5 |
| 20260508044512 | 6 | 89 | 0.0 | 4.8 | 0.00 | 0.00 | 0.00 | 91 | 1014.5 |
| 20260508043014 | 6 | 65 | 0.0 | 16.1 | 0.00 | 0.00 | 0.00 | 92 | 1014.3 |
| 20260508041508 | 6 | 9 | 0.0 | 3.2 | 0.00 | 0.00 | 0.00 | 92 | 1014.2 |
| 20260508040007 | 6 | 327 | 0.0 | 8.0 | 0.00 | 0.00 | 0.00 | 92 | 1014.1 |
| 20260508034507 | 6 | 356 | 0.0 | 14.5 | 0.00 | 0.00 | 0.00 | 92 | 1014.1 |
| 20260508033001 | 6 | 20 | 0.0 | 4.8 | 0.00 | 0.00 | 0.00 | 92 | 1014.0 |
| 20260508031559 | 6 | 5 | 0.0 | 12.9 | 0.00 | 0.00 | 0.00 | 92 | 1013.8 |
| 20260508030110 | 7 | 48 | 0.0 | 1.6 | 0.00 | 0.00 | 0.00 | 92 | 1013.8 |
| 20260508024620 | 6 | 25 | 0.0 | 3.2 | 0.00 | 0.00 | 0.00 | 92 | 1013.7 |
| 20260508023054 | 7 | 5 | 0.0 | 4.8 | 0.00 | 0.00 | 0.00 | 93 | 1013.6 |
| 20260508021553 | 7 | 42 | 0.0 | 4.8 | 0.00 | 0.00 | 0.00 | 93 | 1013.5 |
| 20260508020107 | 7 | 356 | 0.0 | 6.4 | 0.00 | 0.00 | 0.00 | 93 | 1013.4 |
| 20260508014559 | 7 | 52 | 0.0 | 0.0 | 0.00 | 0.00 | 0.00 | 93 | 1013.4 |
| 20260508013104 | 7 | 31 | 0.0 | 0.0 | 0.00 | 0.00 | 0.00 | 93 | 1013.4 |
| 20260508011557 | 7 | 346 | 0.0 | 0.0 | 0.00 | 0.00 | 0.00 | 93 | 1013.4 |
| 20260508010054 | 7 | 3 | 0.0 | 0.0 | 0.00 | 0.00 | 0.00 | 93 | 1013.6 |
| 20260508004548 | 7 | 350 | 0.0 | 0.0 | 0.00 | 0.00 | 0.00 | 93 | 1013.5 |
| 20260508003047 | 7 | 15 | 0.0 | 0.0 | 0.00 | 0.00 | 0.00 | 92 | 1013.4 |
| 20260508001553 | 7 | 20 | 0.0 | 3.2 | 0.00 | 0.00 | 0.00 | 92 | 1013.4 |
| 20260508000043 | 7 | 6 | 0.0 | 1.6 | 0.00 | 0.00 | 0.00 | 92 | 1013.3 |
| 20260507234542 | 7 | 356 | 0.0 | 0.0 | 0.00 | 0.00 | 0.00 | 92 | 1013.0 |
| 20260507233040 | 7 | 343 | 0.0 | 0.0 | 0.00 | 0.00 | 0.00 | 91 | 1012.9 |
| 20260507231541 | 8 | 337 | 0.0 | 1.6 | 0.00 | 0.00 | 0.00 | 91 | 1013.0 |
| 20260507230039 | 7 | 4 | 0.0 | 3.2 | 0.00 | 0.00 | 0.00 | 91 | 1013.0 |
| 20260507224538 | 7 | 351 | 0.0 | 1.6 | 0.00 | 0.00 | 0.00 | 91 | 1012.9 |
| 20260507223038 | 7 | 56 | 0.0 | 3.2 | 0.00 | 0.00 | 0.00 | 91 | 1012.8 |
| 20260507221537 | 8 | 48 | 0.0 | 1.6 | 0.00 | 0.00 | 0.00 | 92 | 1012.7 |
| 20260507220034 | 8 | 15 | 0.0 | 0.0 | 0.00 | 0.00 | 0.00 | 92 | 1012.8 |
| 20260507214538 | 8 | 342 | 0.0 | 12.9 | 0.00 | 0.00 | 0.00 | 92 | 1012.7 |
| 20260507213039 | 8 | 20 | 0.0 | 1.6 | 0.00 | 0.00 | 0.00 | 91 | 1012.6 |
| 20260507211543 | 8 | 347 | 0.0 | 0.0 | 0.00 | 0.00 | 0.00 | 91 | 1012.4 |
| 20260507210027 | 8 | 4 | 0.0 | 0.0 | 0.00 | 0.00 | 0.00 | 91 | 1012.3 |
| 20260507204525 | 8 | 8 | 0.0 | 0.0 | 0.00 | 0.00 | 0.00 | 91 | 1012.1 |
| 20260507203023 | 8 | 360 | 0.0 | 1.6 | 0.00 | 0.00 | 0.00 | 91 | 1011.9 |
| 20260507201534 | 8 | 337 | 0.0 | 4.8 | 0.00 | 0.00 | 0.00 | 91 | 1011.8 |
| 20260507200025 | 8 | 356 | 0.0 | 6.4 | 0.00 | 0.00 | 0.00 | 91 | 1011.6 |
| 20260507194521 | 8 | 1 | 0.0 | 1.6 | 0.00 | 0.00 | 0.00 | 91 | 1011.6 |
| 20260507193022 | 8 | 343 | 0.0 | 1.6 | 0.00 | 0.00 | 0.00 | 91 | 1011.5 |
| 20260507191522 | 8 | 342 | 0.0 | 4.8 | 0.00 | 0.00 | 0.00 | 91 | 1011.2 |
| 20260507190017 | 8 | 35 | 0.0 | 0.0 | 0.00 | 0.00 | 0.00 | 91 | 1011.1 |
| 20260507184515 | 8 | 66 | 0.0 | 9.7 | 0.00 | 0.00 | 0.00 | 91 | 1011.0 |
| 20260507183014 | 8 | 349 | 0.0 | 12.9 | 0.00 | 0.00 | 0.00 | 91 | 1011.0 |
| 20260507181512 | 8 | 323 | 0.0 | 0.0 | 0.00 | 0.00 | 0.00 | 91 | 1010.8 |
| 20260507180021 | 9 | 356 | 0.0 | 0.0 | 0.00 | 0.00 | 0.00 | 91 | 1010.7 |
| 20260507174515 | 9 | 326 | 0.0 | 8.0 | 0.00 | 0.00 | 0.00 | 91 | 1010.6 |
| 20260507173011 | 9 | 338 | 0.0 | 1.6 | 0.00 | 0.00 | 0.00 | 91 | 1010.4 |
| 20260507171506 | 9 | 352 | 0.0 | 14.5 | 0.00 | 0.00 | 0.00 | 90 | 1010.2 |
| 20260507170016 | 10 | 310 | 0.0 | 9.7 | 0.00 | 0.00 | 0.00 | 90 | 1009.9 |
| 20260507164503 | 10 | 351 | 0.0 | 9.7 | 0.00 | 0.00 | 0.00 | 90 | 1009.8 |
| 20260507163001 | 10 | 337 | 0.0 | 14.5 | 0.00 | 0.00 | 0.00 | 89 | 1009.6 |
| 20260507161505 | 10 | 314 | 0.0 | 4.8 | 0.00 | 0.00 | 0.00 | 89 | 1009.5 |
| 20260507160100 | 10 | 349 | 0.0 | 1.6 | 0.00 | 0.00 | 0.00 | 89 | 1009.6 |
| 20260507154602 | 10 | 320 | 0.0 | 12.9 | 0.00 | 0.00 | 0.00 | 89 | 1009.6 |
| 20260507153106 | 10 | 339 | 0.0 | 14.5 | 0.00 | 0.00 | 0.00 | 89 | 1009.3 |
| 20260507151555 | 11 | 306 | 0.0 | 8.0 | 0.00 | 0.00 | 0.00 | 88 | 1009.3 |
| 20260507144553 | 11 | 271 | 0.0 | 8.0 | 0.00 | 0.00 | 0.00 | 86 | 1008.9 |
| 20260507143102 | 12 | 307 | 1.6 | 12.9 | 0.00 | 0.00 | 0.00 | 85 | 1008.6 |
| 20260507141549 | 12 | 317 | 0.0 | 16.1 | 0.00 | 0.00 | 0.00 | 83 | 1008.2 |
| 20260507140046 | 14 | 277 | 0.0 | 14.5 | 0.00 | 0.00 | 0.00 | 81 | 1008.1 |
| 20260507134544 | 15 | 332 | 1.6 | 14.5 | 0.00 | 0.00 | 0.00 | 80 | 1008.0 |
| 20260507133047 | 15 | 319 | 1.6 | 12.9 | 0.00 | 0.00 | 0.00 | 80 | 1007.7 |